TimeCST,TemperatureF,Dew PointF,Humidity,Sea Level PressureIn,VisibilityMPH,Wind Direction,Wind SpeedMPH,Gust SpeedMPH,PrecipitationIn,Events,Conditions,WindDirDegrees,DateUTC
12:52 AM,19.9,17.1,89,30.17,10.0,SW,6.9,-,N/A,,Overcast,230,2013-12-26 06:52:00
1:52 AM,21.9,18.0,85,30.14,10.0,SW,9.2,-,N/A,,Overcast,230,2013-12-26 07:52:00
2:52 AM,21.9,18.0,85,30.13,10.0,SW,4.6,-,N/A,,Overcast,230,2013-12-26 08:52:00
3:52 AM,21.0,17.1,85,30.13,10.0,WSW,10.4,-,N/A,,Partly Cloudy,240,2013-12-26 09:52:00
4:52 AM,19.9,17.1,89,30.12,10.0,WSW,6.9,-,N/A,,Partly Cloudy,240,2013-12-26 10:52:00
5:52 AM,23.0,19.0,85,30.12,10.0,WSW,8.1,-,N/A,,Overcast,250,2013-12-26 11:52:00
6:52 AM,24.1,19.0,81,30.12,10.0,West,5.8,-,N/A,,Overcast,270,2013-12-26 12:52:00
7:52 AM,21.9,18.0,85,30.11,10.0,WSW,3.5,-,N/A,,Scattered Clouds,250,2013-12-26 13:52:00
8:52 AM,21.9,18.0,85,30.12,10.0,SW,5.8,-,N/A,,Clear,220,2013-12-26 14:52:00
9:52 AM,24.1,19.9,84,30.13,10.0,SSW,6.9,-,N/A,,Partly Cloudy,210,2013-12-26 15:52:00
10:52 AM,27.0,21.9,81,30.12,10.0,SSW,8.1,-,N/A,,Scattered Clouds,210,2013-12-26 16:52:00
11:52 AM,28.9,23.0,78,30.11,10.0,WSW,6.9,-,N/A,,Overcast,240,2013-12-26 17:52:00
12:52 PM,30.9,24.1,76,30.09,10.0,SW,5.8,-,N/A,,Overcast,230,2013-12-26 18:52:00
1:52 PM,34.0,27.0,75,30.07,10.0,SW,5.8,-,N/A,,Overcast,230,2013-12-26 19:52:00
2:52 PM,35.1,27.0,72,30.09,10.0,WSW,8.1,-,N/A,,Partly Cloudy,250,2013-12-26 20:52:00
3:52 PM,34.0,27.0,75,30.11,10.0,WSW,6.9,-,N/A,,Overcast,250,2013-12-26 21:52:00
4:52 PM,34.0,27.0,75,30.12,10.0,WSW,9.2,-,N/A,,Overcast,250,2013-12-26 22:52:00
5:52 PM,33.1,26.1,75,30.14,10.0,West,8.1,-,N/A,,Overcast,270,2013-12-26 23:52:00
6:52 PM,28.9,24.1,82,30.17,10.0,West,10.4,-,N/A,,Partly Cloudy,280,2013-12-27 00:52:00
7:52 PM,26.1,21.0,81,30.19,10.0,West,11.5,-,N/A,,Clear,280,2013-12-27 01:52:00
8:52 PM,26.1,21.0,81,30.20,10.0,WNW,9.2,-,N/A,,Clear,300,2013-12-27 02:52:00
9:52 PM,21.9,19.0,89,30.20,10.0,WNW,11.5,-,N/A,,Clear,290,2013-12-27 03:52:00
10:52 PM,19.9,17.1,89,30.22,10.0,West,9.2,-,N/A,,Clear,270,2013-12-27 04:52:00
11:52 PM,18.0,15.1,88,30.22,10.0,WNW,10.4,-,N/A,,Clear,290,2013-12-27 05:52:00